Location: Peebles
(55.6412°N, 3.1714°W)
Time: 15:30:42
(UTC+01:00)

FENGYUN 1C DEB - Pass Details

Date: 10 July 2022
Orbit: 831 x 862 km, 98.9° (Epoch: 16 August)

Event Time Altitude Azimuth Distance (km) Brightness Sun altitude
Rises 23:08:55 0° 224° (SW) 3,397 ? -7.5°
Reaches altitude 10° 23:12:47 10° 252° (WSW) 2,462 ? -7.8°
Maximum altitude 23:15:10 13° 278° (W) 2,262 ? -7.9°
Drops below altitude 10° 23:17:34 10° 304° (NW) 2,461 ? -8.1°
Sets 23:21:27 0° 333° (NNW) 3,397 ? -8.4°
